Suomi 100
1 43804U 18099AY 23173.71342446 .00006724 00000-0 53491-3 0 9997
2 43804 97.5667 235.9377 0020197 91.2839 269.0699 15.00566486248521
Al Farabi 2
1 43805U 18099AZ 23173.11668765 .00008000 00000-0 60846-3 0 9998
2 43805 97.5616 236.3958 0013490 89.1928 271.0843 15.02315094248498
CHOMPTT
1 43855U 18104G 23173.36857034 .00023748 00000-0 58065-3 0 9992
2 43855 85.0296 162.6314 0008591 305.8146 54.2307 15.40635538251379
ISAT
1 43879U 18111D 23172.95731982 .00007363 00000-0 55810-3 0 9993
2 43879 97.6420 77.3444 0015068 143.6394 216.5857 15.02457464243034
UWE-4
1 43880U 18111E 23173.68574843 .00007332 00000-0 55781-3 0 9990
2 43880 97.6340 78.7767 0018912 152.2667 207.9570 15.02267865243197
Sparrow
1 43881U 18111F 23173.69568284 .00007918 00000-0 59441-3 0 9991
2 43881 97.6473 79.4245 0011108 182.2947 177.8229 15.02839776243213
Lume 1
1 43908U 18111AJ 23173.64452694 .00038392 00000-0 76012-3 0 9996
2 43908 97.1385 56.8248 0013198 168.8022 191.3525 15.46885674250233
FO-99
1 43937U 19003F 23173.06130180 .00057843 00000-0 90522-3 0 9992
2 43937 97.0843 200.2092 0010234 244.2150 115.8049 15.53509847246807
AstroCast 0.2
1 44083U 19018F 23173.71367015 .00059179 00000-0 10197-2 0 9995
2 44083 97.2647 233.5459 0005288 204.2992 155.8011 15.50853291235277
AISTechSat 3
1 44103U 19018AB 23173.73570812 .00030319 00000-0 72528-3 0 9993
2 44103 97.2519 232.1545 0007684 242.5968 117.4498 15.41389824235368
AISat 1
1 44104U 19018AC 23173.76541288 .00022391 00000-0 43102-3 0 9999
2 44104 97.3739 265.2101 0039503 236.3198 123.4283 15.47029017236585
Prox-1
1 44339U 19036A 23173.22442561 .00006500 00000-0 12966-2 0 9991
2 44339 24.0022 12.5152 0010072 321.2053 38.7716 14.59500439212420
Move-IIb
1 44398U 19038N 23173.42304101 .00058501 00000-0 14031-2 0 9990
2 44398 97.6593 156.4863 0010122 263.6958 96.3135 15.41139747219479
SONATE
1 44400U 19038Q 23173.16433334 .00010349 00000-0 46207-3 0 9995
2 44400 97.6840 150.9120 0018589 296.9461 62.9875 15.21409996218996
BeeSat 9
1 44412U 19038AC 23173.70431332 .00027303 00000-0 93116-3 0 9993
2 44412 97.6745 154.5245 0012667 286.5608 73.4241 15.30250974219007
JAISAT-1
1 44419U 19038F 23172.93378888 .00022682 00000-0 76829-3 0 9997
2 44419 97.6735 154.8130 0011880 285.8317 74.1613 15.30521636219269
Taurus 1
1 44530U 19059C 23173.80258946 .00005191 00000-0 13457-2 0 9996
2 44530 98.5560 281.6894 0014049 80.0171 280.2607 14.50152893199455
Duchifat 3
1 44854U 19089C 23173.77505797 .00009494 00000-0 63693-3 0 9991
2 44854 36.9628 57.8905 0009212 351.5140 8.5447 15.06341886193674
OPS-SAT
1 44878U 19092F 23173.79989248 .00034958 00000-0 10311-2 0 9991
2 44878 97.4748 2.6207 0010279 114.9732 245.2579 15.34869253194650
TO-108
1 44881U 19093C 23173.76366395 .00001200 00000-0 15548-3 0 9997
2 44881 97.8616 252.1199 0015968 62.9851 297.2990 14.82552942189629
FloripaSat 1
1 44885U 19093G 23173.80302040 .00004269 00000-0 49526-3 0 9994
2 44885 97.8679 254.9022 0014774 65.4200 294.8553 14.85864355189789
RS-44
1 44909U 19096E 23172.99175430 .00000026 00000-0 58301-4 0 9993
2 44909 82.5218 344.7521 0217579 175.4624 184.8520 12.79721488162826
BY70-2
1 45857U 20042B 23173.78192085 .00022326 00000-0 22744-2 0 9999
2 45857 97.9253 253.6990 0007353 354.9629 5.1513 14.90689236160376
UPMSat 2
1 46276U 20061E 23172.74966966 .00008761 00000-0 36939-3 0 9997
2 46276 97.3459 240.2354 0000921 49.6235 310.5082 15.23544157154988
AmicalSat
1 46287U 20061R 23173.73786151 .00014858 00000-0 68770-3 0 9997
2 46287 97.3992 240.1420 0003416 88.0333 272.1294 15.20218117154555
SALSAT
1 46495U 20068K 23172.83279536 .00004036 00000-0 26739-3 0 9995
2 46495 97.7704 120.8847 0017405 103.1112 257.2059 15.07774126149778
CAPE 3
1 47309U 21002A 23172.84724818 .00030967 00000-0 73564-3 0 9998
2 47309 60.6776 42.0364 0011475 198.7644 161.3031 15.41477095135000
AO-109
1 47311U 21002C 23173.76531296 .00028863 00000-0 73839-3 0 9996
2 47311 60.6813 37.0941 0011016 187.2162 172.8776 15.39262369135151
ExoCube 2
1 47319U 21002L 23173.05306189 .00024445 00000-0 64418-3 0 9992
2 47319 60.6794 42.0121 0011450 191.9575 168.1249 15.38426745134965
UVSQ-SAT
1 47438U 21006AB 23172.69156735 .00015768 00000-0 64161-3 0 9990
2 47438 97.3833 229.7332 0011026 72.7276 287.5167 15.24544274133337
YUSAT 1
1 47439U 21006AC 23172.70981675 .00020404 00000-0 76849-3 0 9991
2 47439 97.3839 230.5248 0010185 71.6855 288.5491 15.27078435133386
SOMP 2b
1 47445U 21006AJ 23173.40468344 .00014773 00000-0 61446-3 0 9998
2 47445 97.3798 229.6802 0010942 74.9017 285.3430 15.23819124133415
IDEASSat
1 47458U 21006AX 23173.71657144 .00015832 00000-0 67008-3 0 9991
2 47458 97.3893 230.7689 0010216 73.4789 286.7570 15.23221605133449
CubeSX-Sirius-HSE
1 47951U 21022V 23173.76221114 .00010421 00000-0 58272-3 0 9998
2 47951 97.4964 71.0265 0017289 320.4872 39.5098 15.13536323123878
CubeSX-HSE
1 47952U 21022W 23173.66909476 .00011280 00000-0 62930-3 0 9992
2 47952 97.4964 70.9823 0017291 319.7853 40.2098 15.13597952123863
KSU-Cubesat
1 47954U 21022Y 23173.25547712 .00010646 00000-0 58023-3 0 9993
2 47954 97.4973 70.9583 0016505 320.4463 39.5563 15.14458818123542
GRBAlpha
1 47959U 21022AD 23173.72155685 .00010912 00000-0 60755-3 0 9995
2 47959 97.4969 71.1176 0017066 320.1929 39.8050 15.13682779122693
Orbicraft-Zorkiy
1 47960U 21022AE 23173.74244983 .00012268 00000-0 66940-3 0 9997
2 47960 97.4994 71.5726 0016728 318.9922 41.0051 15.14378436123409
STECCO
1 47962U 21022AG 23173.79189105 .00021926 00000-0 10062-2 0 9992
2 47962 97.4968 74.0455 0010641 308.1203 51.9072 15.20385687122898
DO-111
1 47963U 21022AH 23173.69110822 .00350313 00000-0 32902-2 0 9994
2 47963 97.4926 82.6701 0006032 165.9263 194.2166 15.66045511123453
MO-110
1 47964U 21022AJ 23172.72016630 .00019860 00000-0 89092-3 0 9992
2 47964 97.4986 73.5849 0012491 305.8822 54.1253 15.21167917122764
FEES
1 48082U 21022AL 23172.71896860 .00035177 00000-0 12972-2 0 9995
2 48082 97.4974 74.8772 0007460 298.4657 61.5830 15.27685603122558
TUBIN
1 48900U 21059X 23173.75288532 .00008771 00000-0 41574-3 0 9991
2 48900 97.6013 307.3869 0007800 259.4851 100.5505 15.19520816110022
IT-SPINS
1 49017U 21013G 23173.66157240 .00036200 00000-0 81802-3 0 9998
2 49017 51.5923 51.8738 0005203 357.1001 2.9953 15.42813551110552
LEDSAT
1 49069U 21073D 23173.73774407 .00011102 00000-0 60524-3 0 9991
2 49069 97.4819 244.5175 0025448 101.5509 258.8582 15.14271237101744
CUTE
1 49263U 21088D 23173.66025565 .00010541 00000-0 67322-3 0 9998
2 49263 97.5434 239.3644 0016708 240.1841 119.7727 15.08723258 95112
TeikyoSat 4
1 49396U 21102B 23173.12707731 .00001712 00000-0 13376-3 0 9995
2 49396 97.5135 224.9690 0017396 69.4785 290.8306 15.02270516 88519
Z-Sat
1 49399U 21102E 23173.73712216 .00003952 00000-0 28188-3 0 9994
2 49399 97.4840 226.6639 0023441 54.3974 305.9432 15.04891818 88724
KOSEN 1
1 49402U 21102H 23173.67193315 .00004933 00000-0 33479-3 0 9994
2 49402 97.4767 227.1199 0021925 43.7050 316.5909 15.06660542 88789
HO-113
1 50466U 21131B 23173.80219802 .00000731 00000-0 25138-3 0 9998
2 50466 98.5520 255.3297 0005418 117.9915 242.1821 14.38932215 78166
Tevel-3
1 50988U 22002E 23173.69022967 .00021456 00000-0 85248-3 0 9991
2 50988 97.4323 240.6179 0007622 203.3865 156.7027 15.25309626 79602
